CZ-6A DEB, 56253

Orbit data source: Space-Track

CZ-6A DEB, 56253 is space debris in SSO originally from a launch on Fri, 11 Nov 2022 UTC launched from the Taiyaun Space Center, China (TSC). Debris objects in space refer to the collection of defunct objects orbiting the Earth. Examples of debris include non-operational satellites, rocket bodies, and fragments generated from explosions, collisions, or faulty payload assembly.

Loading next visibility...
Identifier
56253, 2022-151ABV
Orbit
SSO
Country
Flag of CNCN / PRC
Related business
Manufacturer
SAST
Mission
Spacecraft
Bus & Motor
Unknown
Mass
Unknown
Launch date (UTC)
2022-11-11 (3 years ago)
Launch vehicle
Unknown
Launch site
Taiyaun Space Center, China (TSC)
Object type
Payload
Rocket body
Debris
Shape & HBR
Unknown shape, 0.1 m
Radar Cross Section
Small (<0.1 m²)

Expand to show TLE details & history
Last TLE update: 4 days ago

TLE from 4 days ago
0 CZ-6A DEB
1 56253U 22151ABV 25348.97580152  .00002030  00000-0  97286-3 0  9991
2 56253  98.8207 358.8013 0031117 109.0254 251.4297 14.19869643147653
Epoch: 2025-12-14T23:25Z
TLE epoch observation values (Epoch: 2025-12-14T23:25:09.251Z)
Latitude
-0.00004°
Longitude
-76.36824°
Altitude
835.907 km
Speed
7.431 km/s
True Right ascension
23h 55m 12s
True Declination
0° 00' 00"
Sunlit
Object was in daylight at epoch
Visualization orbit readout
Latitude
Unknown
Longitude
Unknown
Altitude
Unknown
Speed
Unknown
Apparent Right ascension
Unknown
Apparent Declination
Unknown
Sunlit
N/A
Visualization observer readout
Local Sidereal Time
06:34:16
Azimuth
Unknown
Elevation
Unknown
Doppler factor
Unknown
Orbital elements
Apogee altitude
845.365 km
Perigee altitude
800.55 km
Semi-major axis
7,201.095 km
Eccentricity
0.00311
Inclination
98.8207°
RAAN
358.8013°
Arg. of periapsis
109.0254°
True anomaly
251.09211°
Mean anomaly
251.4297°
Eccentric anomaly
251.26086°
Mean motion
3.55177 °/min
Orbital period
101.36 mins
BSTAR
0.00097286
Loading maneuver chart data...
Computing Atmospheric mass density...
Loading historical data...
Loading historical data...
Loading historical data...
Loading historical data...
Loading historical data...
Loading historical data...
Loading historical data...

Documentation

Showing up to 5 results
|